Location: Gazon
(48.1318°N, 1.2708°W)
Time: 23:13:30
(UTC+00:00)

Meteor 2-11 Rocket - Pass Details

Date: 18 September 2020
Orbit: 939 x 957 km, 82.5° (Epoch: 25 October)

Event Time Altitude Azimuth Distance (km) Brightness Sun altitude
Rises 18:44:01 0° 180° (S) 3,619 7.4 -6.4°
Reaches altitude 10° 18:46:31 10° 178° (S) 2,679 6.7 -6.8°
Maximum altitude 18:52:36 71° 96° (E) 1,013 4.4 -7.8°
Drops below altitude 10° 18:58:45 10° 13° (NNE) 2,700 6.8 -8.8°
Sets 19:01:16 0° 12° (NNE) 3,650 7.5 -9.2°
